Dallas Redbird, TX

3:44 AM CST on November 22, 2017 (GMT -0600)
Redbird

Weather History for KRBD - January, 2014

Change the Weather History Date:

Tuesday, January 28, 2014

  Actual Average Record
Temperature  
Mean Temperature 30 °F -  
Max Temperature 36 °F 55 °F 81 °F (2015)
Min Temperature 23 °F 37 °F 17 °F (1997)
Degree Days  
Heating Degree Days 36    
Moisture  
Dew Point 4 °F    
Average Humidity 37    
Maximum Humidity 49    
Minimum Humidity 27    
Precipitation  
Precipitation 0.00 in - - ()
Sea Level Pressure  
Sea Level Pressure 30.42 in    
Wind  
Wind Speed 11 mph (North)    
Max Wind Speed 15 mph    
Max Gust Speed 22 mph    
Visibility 10 miles    
Events      
Averages and records for this station are not official NWS values.
T = Trace of Precipitation, MM = Missing Value Source: NWS Daily Summary

Daily Weather History Graph

Daily Weather History Graph

Search for Another Location

Airport or City:

Trip Planner

Search our weather history database for the weather conditions in past years. The results will help you decide how hot, cold, wet, or windy it might be!

Date:

Astronomy

Jan. 28, 2014 Rise Set
Actual Time 7:24 AM CST 5:56 PM CST
Civil Twilight 6:58 AM CST 6:22 PM CST
Nautical Twilight 6:29 AM CST 6:52 PM CST
Astronomical Twilight 5:59 AM CST 7:21 PM CST
Moon 5:05 AM CST (1/28) 3:49 PM CST (1/28)
Length of Visible Light 11h 24m
Length of Day
10h 31m
Waning Crescent, 7% of the Moon is Illuminated
Jan 28
Waning Crescent
Jan 30
New
Feb 6
First Quarter
Feb 14
Full
Feb 22
Last Quarter

Hourly Weather History & Observations

Time (CST) Temp. Windchill Dew Point Humidity Pressure Visibility Wind Dir Wind Speed Gust Speed Precip Events Conditions
12:53 AM 26.1 °F 14.5 °F -4.0 °F 27% 30.33 in 10.0 mi North 13.8 mph 20.7 mph N/A   Mostly Cloudy
1:53 AM 25.0 °F 13.6 °F -4.0 °F 28% 30.34 in 10.0 mi North 12.7 mph 20.7 mph N/A   Overcast
2:53 AM 25.0 °F 12.6 °F -2.9 °F 30% 30.34 in 10.0 mi North 15.0 mph - N/A   Overcast
3:53 AM 25.0 °F 13.1 °F -2.0 °F 31% 30.35 in 10.0 mi North 13.8 mph - N/A   Partly Cloudy
4:53 AM 25.0 °F 14.2 °F -0.9 °F 33% 30.35 in 10.0 mi North 11.5 mph - N/A   Partly Cloudy
5:53 AM 24.1 °F 14.4 °F -0.9 °F 34% 30.37 in 10.0 mi NNE 9.2 mph - N/A   Mostly Cloudy
6:53 AM 23.0 °F 13.1 °F -0.9 °F 35% 30.39 in 10.0 mi NNE 9.2 mph - N/A   Mostly Cloudy
7:53 AM 24.1 °F 12.0 °F 1.0 °F 37% 30.43 in 10.0 mi North 13.8 mph - N/A   Overcast
8:53 AM 25.0 °F 15.5 °F 3.9 °F 41% 30.46 in 10.0 mi North 9.2 mph - N/A   Overcast
9:53 AM 26.1 °F 15.0 °F 3.0 °F 37% 30.49 in 10.0 mi North 12.7 mph - N/A   Overcast
10:53 AM 28.9 °F 19.2 °F 1.9 °F 32% 30.50 in 10.0 mi NNE 11.5 mph - N/A   Mostly Cloudy
11:53 AM 33.1 °F 23.9 °F 1.9 °F 27% 30.49 in 10.0 mi North 12.7 mph 21.9 mph N/A   Clear
12:53 PM 32.0 °F 24.2 °F 1.0 °F 27% 30.45 in 10.0 mi NNE 9.2 mph - N/A   Clear
1:53 PM 34.0 °F 26.0 °F 3.9 °F 28% 30.41 in 10.0 mi North 10.4 mph 16.1 mph N/A   Clear
2:53 PM 34.0 °F 25.0 °F 9.0 °F 35% 30.39 in 10.0 mi NNW 12.7 mph - N/A   Clear
3:53 PM 36.0 °F 27.1 °F 12.0 °F 37% 30.39 in 10.0 mi North 13.8 mph 19.6 mph N/A   Clear
4:53 PM 35.1 °F 27.4 °F 12.9 °F 40% 30.41 in 10.0 mi NNW 10.4 mph - N/A   Clear
5:53 PM 33.1 °F 25.5 °F 10.9 °F 40% 30.42 in 10.0 mi NNW 9.2 mph - N/A   Clear
6:53 PM 30.0 °F 23.2 °F 9.0 °F 41% 30.44 in 10.0 mi NNW 6.9 mph - N/A   Clear
7:53 PM 27.0 °F - 9.0 °F 47% 30.45 in 10.0 mi Calm Calm - N/A   Clear
8:53 PM 26.1 °F - 9.0 °F 49% 30.46 in 10.0 mi Calm Calm - N/A   Clear
9:53 PM 26.1 °F - 8.1 °F 47% 30.47 in 10.0 mi Calm Calm - N/A   Clear
10:53 PM 25.0 °F - 8.1 °F 49% 30.48 in 10.0 mi Calm Calm - N/A   Clear
11:53 PM 27.0 °F - 8.1 °F 45% 30.46 in 10.0 mi Calm Calm - N/A   Clear